Regional Weather Roundup
Issued by NWS

Home | Current Version | Previous Version | Graphics & Text | Print | Product List | Glossary On
Versions: 1 2 3 4 5 6 7 8 9 10 11 12 13 14 15 16 17 18 19 20 21 22 23 24 25 26 27 28 29 30 31 32 33 34 35 36 37 38 39 40 41 42 43 44 45 46 47 48 49 50
000
ASUS45 KCYS 251010
RWRWY

WYOMING REGIONAL WEATHER ROUNDUP
NATIONAL WEATHER SERVICE CHEYENNE WY
300 AM MST TUE NOV 25 2014

NOTE:  "FAIR" INDICATES FEW OR NO CLOUDS BELOW 12,000 FEET
WITH NO SIGNIFICANT WEATHER AND/OR OBSTRUCTIONS TO VISIBILITY.

WYZ001-251100-
YELLOWSTONE NATIONAL PARK

CITY           SKY/WX    TMP DP  RH WIND       PRES   REMARKS
LK YELLOWSTONE   N/A     19  15  84 VRB5      30.09F WCI  12
W YELLOWSTONE  NOT AVBL

$$
WYZ002>013-054>058-071-098>099-251100-
NORTHERN WYOMING

CITY           SKY/WX    TMP DP  RH WIND       PRES   REMARKS
JACKSON        CLOUDY    25  25 100 SW7       30.16F WCI  17
CODY           CLOUDY    36  18  48 CALM      29.92F
GREYBULL       CLOUDY    23  18  81 SE7       29.98F WCI  15
WORLAND        CLOUDY    20  14  77 S6        29.98F WCI  12
SHERIDAN       CLOUDY    31  17  56 VRB3      29.85F
BUFFALO        CLOUDY    27   9  46 S8        29.87F WCI  19
GILLETTE       CLOUDY    29  16  58 SW10      29.89F WCI  20
HULETT         CLOUDY    30  21  69 SW10      29.92F WCI  21
NEWCASTLE      FAIR      21  21 100 SE10      29.98F WCI  10

$$
WYZ014>020-022>026-101>103-251100-
CENTRAL WYOMING

CITY           SKY/WX    TMP DP  RH WIND       PRES   REMARKS
BIG PINEY      CLOUDY    28   9  44 SW5       30.19F WCI  23
PINEDALE       CLOUDY    21  14  73 NW10      30.19S WCI  10
DUBOIS         CLOUDY    23  16  74 MISG      30.01F HAZE
LANDER         CLOUDY    24   7  48 W8        30.01R WCI  15
RIVERTON       CLOUDY    27  11  51 W7        30.01F WCI  19
CASPER         CLOUDY    26  10  50 SW22G30   30.00F WCI  12
DOUGLAS        MOCLDY   N/A N/A N/A S6        30.00F

$$
WYZ021-027>030-104>119-251100-
SOUTHERN WYOMING

CITY           SKY/WX    TMP DP  RH WIND       PRES   REMARKS
EVANSTON       PTCLDY    21  11  65 SW18      30.27F WCI   6
FORT BRIDGER   PTSUNNY   25  14  63 SW23G29   30.28F WCI  10
ROCK SPRINGS   CLOUDY    22  10  60 SW8       30.21F WCI  12
DIXON          CLOUDY    22  12  65 S14G23    30.27F WCI   9
RAWLINS        CLOUDY    23  11  60 SW23G36   30.12F WCI   7
SARATOGA       FAIR      25  10  54 SW10G20   30.16F WCI  15
LARAMIE        PTCLDY    20   6  55 W14       30.05F WCI   7
CHEYENNE       PTCLDY    24   8  50 SW17G30   30.06F WCI  11
TORRINGTON     PTCLDY    21  13  71 CALM      30.06F
PINE BLUFFS    FAIR      19  10  68 W7        30.09F WCI  10

$$


USA.gov is the U.S. government's official web portal to all federal, state and local government web resources and services.